Tracking 35331 objects as of 14-Sep-2026
HD Live streaming from Space Station
objects crossing your sky now

STARLINK-38024

Track STARLINK-38024 now!
10-day predictions
STARLINK-38024 is classified as:


NORAD ID: 69975
Int'l Code: 2026-159A
Launch date: July 11, 2026
Source: United States (US)
Launch site: AIR FORCE WESTERN TEST RANGE (AFWTR)
Your satellite tracking list
Your tracking list is empty




NASA's NSSDC Master Catalog

Two Line Element Set (TLE):
1 69975U 26159A   26257.25003472 -.02270561  00000-0 -36972-1 0  9997
2 69975  97.2842  99.0300 0002221  91.1496 161.1010 15.56073115  6019
Source of the keplerian elements: AFSPC